Location: Marlborough
(51.4223°N, 1.7415°W)
Time: 06:24:12
(UTC+01:00)

Envisat - Pass Details

Date: 25 May 2024
Orbit: 762 x 764 km, 98.3° (Epoch: 13 June)

Event Time Altitude Azimuth Distance (km) Brightness Sun altitude
Rises 02:56:08 0° 29° (NNE) 3,239 8.3 -13.5°
Reaches altitude 10° 02:59:47 10° 56° (ENE) 2,306 6.5 -13.2°
Maximum altitude 03:02:10 13° 85° (E) 2,080 5.7 -13.1°
Drops below altitude 10° 03:04:34 10° 113° (ESE) 2,298 5.5 -12.9°
Sets 03:08:10 0° 140° (SE) 3,217 6.0 -12.6°
